[[{"header":{"parameterUnit":"m.s-1","parameterCategory":1,"la1":30.2991,"la2":30.254,"lo1":-89.0895,"lo2":-89.0444,"dy":0.0017,"dx":0.0017,"nx":28,"ny":28,"refTime":"2025-11-15T09:00:00:Z","depth":0,"parameterNumber":2,"parameterNumberName":"U-component_of_WINDS"},"data":[0,0,0,0,0,0,0,0,0,0,0,0,0,0,0,0,0,0,0,0,0,0,0,0,0,0,0,0,0,0,0,0,0,0,0,0,0,0,0,0,0,0,0,0,0,0,0,0,0,0,0,0,0,0,0,0,0,0,2.9656,2.9657,0,2.9732,2.9733,2.9734,2.9808,2.9809,2.981,2.981,2.9888,2.9889,2.9891,0,0,0,0,0,0,0,0,0,0,0,0,0,2.9576,2.9577,2.9656,2.9657,2.9658,2.9732,2.9733,2.9734,2.9807,2.9809,2.981,2.9811,2.9888,2.9889,2.9891,0,0,0,0,0,0,0,0,0,0,0,0,0,2.9627,2.9577,2.9656,2.9703,2.9708,2.9732,2.9733,2.9735,2.9807,2.9809,2.981,2.9811,2.9887,2.9889,2.9891,2.9874,0,0,2.9896,2.9897,0,0,0,0,0,0,0,0,2.9624,2.963,2.9695,2.97,2.9706,2.9762,2.9734,2.9781,2.9807,2.977,2.981,2.9812,2.9845,2.985,2.9862,2.9877,2.9881,2.9897,2.9898,2.9898,2.9899,0,0,0,0,0,0,0,2.9621,2.9627,2.9686,2.9696,2.9703,2.9722,2.9731,2.9743,2.9798,2.9773,2.9779,2.9787,2.9848,2.986,2.9864,2.9882,2.9897,2.9898,2.9899,2.99,2.9892,2.9891,0,0,0,0,0,0,2.961,2.9624,2.9684,2.9688,2.9668,2.9722,2.9732,2.9742,2.9799,2.9808,2.9785,2.979,2.9856,2.9862,2.9867,2.9853,2.9898,2.99,2.9901,2.9893,2.9892,2.989,0,0,0,0,0,0,2.9608,2.9614,2.9681,2.9658,2.9668,2.9722,2.9733,2.9743,2.9755,2.9808,2.9818,2.9787,2.9857,2.9865,2.9873,2.9857,2.9901,2.9903,2.9895,2.9893,2.9891,2.9823,0,0,0,0,0,0,2.9605,2.9613,2.9606,2.9657,2.9669,2.9684,2.9732,2.9744,2.9758,2.9764,2.9812,2.9821,2.9859,2.9869,2.9874,2.986,2.9904,2.9896,2.9894,2.9892,2.9827,2.9819,2.9812,0,0,0,0,0,2.9602,2.9583,2.9605,2.9612,2.9661,2.9682,2.9689,2.9733,2.9756,2.975,2.9785,2.982,2.9858,2.987,2.9876,2.9862,2.9898,2.9895,2.9892,2.983,2.9821,2.9813,0,0,0,0,0,0,2.9527,2.959,2.9616,2.9613,2.9642,2.9695,2.9688,2.9721,2.9744,2.9749,2.9803,2.9813,2.9815,2.984,2.9852,2.985,2.9883,2.9881,2.9834,2.9825,2.9818,2.9812,2.9905,0,0,0,0,0,2.9511,2.9523,2.9577,2.9569,2.9583,2.9633,2.9644,2.9676,2.9708,2.9721,2.9756,2.9786,2.9806,2.9817,2.9837,2.9832,2.9845,2.9825,2.9818,2.9812,2.9809,2.9812,2.9805,2.9881,2.9881,2.9881,0,0,2.9476,2.9512,2.9516,2.9555,2.9582,2.9594,2.9643,2.9653,2.9663,2.9722,2.9732,2.976,2.9798,2.9799,2.9802,2.982,2.9792,2.9808,2.9803,2.9804,2.9808,2.9801,2.9794,2.9879,2.9879,2.988,0,0,2.942,2.9447,2.9445,2.9471,2.9511,2.9546,2.9545,2.9594,2.9615,2.9626,2.9672,2.9686,2.9717,2.9743,2.976,2.9719,2.9752,2.9724,2.9685,2.9687,2.9681,2.9676,2.9663,2.9657,2.9722,2.9722,2.9721,0,2.9371,2.9391,2.944,2.9448,2.9465,2.9521,2.9521,2.9544,2.9588,2.9599,2.9619,2.9662,2.9691,2.9702,2.9692,2.9703,2.9706,2.9718,2.9678,2.9673,2.9669,2.9658,2.9652,2.9718,2.9718,2.9719,2.9719,0,2.9331,2.9344,2.9338,2.9381,2.9397,2.9401,2.9452,2.9463,2.9495,2.9527,2.954,2.9578,2.9609,2.9614,2.9644,2.963,2.964,2.9668,2.9701,2.9658,2.9648,2.9643,2.9713,2.9714,2.9715,2.9716,0,0,2.9226,2.9299,2.9296,2.9318,2.9368,2.938,2.9387,2.9418,2.9428,2.9458,2.9467,2.9495,2.9522,2.9542,2.9576,2.9577,2.9545,2.9606,2.9608,2.9594,2.9535,2.9513,2.9507,2.9568,2.9568,2.9567,2.9532,0,2.9179,2.9195,2.9241,2.9244,2.9259,2.9315,2.9322,2.9354,2.9386,2.9405,2.944,2.946,2.9494,2.9507,2.951,2.9548,2.9534,2.9551,2.9579,2.9579,2.9567,2.9502,2.9478,2.9443,2.9528,2.9528,2.9527,0,2.9124,2.9152,2.9157,2.921,2.9218,2.9223,2.9257,2.9273,2.9313,2.9337,2.9361,2.94,2.9413,2.9445,2.9466,2.9477,2.9492,2.9512,2.9512,2.9516,2.955,2.9505,2.9433,2.9428,2.9521,2.9522,2.9522,0,2.9049,2.9088,2.9097,2.9114,2.9175,2.9178,2.9204,2.9245,2.9262,2.9293,2.9305,2.9336,2.9353,2.9377,2.9425,2.9443,2.9441,2.9476,2.9462,2.9461,2.9458,2.9458,2.9388,2.9467,2.9467,2.9467,2.9467,0,2.8991,2.8992,2.9065,2.9069,2.9074,2.9128,2.9131,2.9162,2.9199,2.9213,2.9263,2.9275,2.9337,2.9357,2.9395,2.9408,2.9415,2.9436,2.9445,2.9431,2.9428,2.9441,2.9444,2.9466,2.9466,2.9467,2.9467,0,2.8907,2.8955,2.8969,2.9028,2.9043,2.9043,2.9094,2.9102,2.9139,2.9156,2.9163,2.9221,2.9247,2.9298,2.9338,2.9363,2.9369,2.9386,2.9355,2.9361,2.9345,2.9346,2.9281,2.9277,2.9357,2.9356,2.9356,0,2.8867,2.8869,2.8929,2.8942,2.8966,2.8986,2.9005,2.906,2.9077,2.9125,2.9128,2.9159,2.9186,2.9227,2.9273,2.9305,2.9324,2.9299,2.9329,2.9315,2.9325,2.9324,2.9326,2.9292,2.9291,2.929,2.9289,0,2.8791,2.8815,2.8839,2.8873,2.8894,2.8923,2.8954,2.8963,2.9026,2.9043,2.9071,2.9093,2.9136,2.9166,2.9206,2.9235,2.9273,2.928,2.9278,2.9263,2.9246,2.9257,2.9337,2.928,2.9281,2.9282,2.9282,2.9283,2.8728,2.8734,2.8778,2.8804,2.8834,2.8864,2.8876,2.8915,2.8939,2.8978,2.901,2.9037,2.9081,2.9138,2.9165,2.9188,2.9205,2.9203,2.9202,2.9201,2.9196,2.9243,2.9195,2.9195,2.9196,2.9196,2.9196,0,2.8655,2.8687,2.8711,2.8755,2.8776,2.8812,2.885,2.8866,2.8888,2.8926,2.8953,2.8987,2.9019,2.9069,2.9105,2.9113,2.9132,2.9121,2.9121,2.9128,2.9177,2.9175,2.9106,2.9106,2.9106,2.9106,2.9106,2.9106,2.862,2.8633,2.8663,2.8693,2.8726,2.8752,2.8771,2.88,2.883,2.8866,2.8893,2.8926,2.897,2.901,2.9041,2.9055,2.9067,2.905,2.907,2.9115,2.9124,2.9132,2.913,2.9052,2.9052,2.9019,2.9018,2.9018]},{"header":{"parameterUnit":"m.s-1","parameterCategory":1,"la1":30.2991,"la2":30.254,"lo1":-89.0895,"lo2":-89.0444,"dy":0.0017,"dx":0.0017,"nx":28,"ny":28,"refTime":"2025-11-15T09:00:00:Z","depth":0,"parameterNumber":3,"parameterNumberName":"V-component_of_WINDS"},"data":[0,0,0,0,0,0,0,0,0,0,0,0,0,0,0,0,0,0,0,0,0,0,0,0,0,0,0,0,0,0,0,0,0,0,0,0,0,0,0,0,0,0,0,0,0,0,0,0,0,0,0,0,0,0,0,0,0,0,0.3938,0.3938,0,0.3953,0.3953,0.3953,0.3942,0.3942,0.3941,0.3941,0.3957,0.3957,0.3958,0,0,0,0,0,0,0,0,0,0,0,0,0,0.3898,0.3899,0.3938,0.3938,0.3938,0.3953,0.3953,0.3953,0.3942,0.3942,0.3941,0.3941,0.3956,0.3957,0.3958,0,0,0,0,0,0,0,0,0,0,0,0,0,0.3915,0.3899,0.3938,0.3934,0.3934,0.3953,0.3953,0.3953,0.3943,0.3942,0.3941,0.394,0.3956,0.3957,0.3958,0.3981,0,0,0.3962,0.3963,0,0,0,0,0,0,0,0,0.3914,0.3916,0.3935,0.3935,0.3935,0.3945,0.3945,0.3963,0.3943,0.3939,0.3941,0.394,0.3953,0.3955,0.3959,0.3982,0.3983,0.3963,0.3963,0.3964,0.3964,0,0,0,0,0,0,0,0.3913,0.3915,0.3944,0.3935,0.3935,0.3932,0.3933,0.3948,0.395,0.394,0.3939,0.3941,0.3953,0.3958,0.396,0.3983,0.3963,0.3964,0.3965,0.3965,0.4023,0.4023,0,0,0,0,0,0,0.3912,0.3915,0.3943,0.3944,0.3922,0.3933,0.3935,0.3942,0.395,0.3951,0.3941,0.394,0.3956,0.3958,0.396,0.3986,0.3964,0.3965,0.3966,0.4022,0.4023,0.4024,0,0,0,0,0,0,0.3911,0.3915,0.3943,0.3929,0.3933,0.3935,0.3943,0.3943,0.3948,0.3951,0.3952,0.3946,0.3956,0.3958,0.3976,0.3986,0.3966,0.3967,0.4021,0.4022,0.4023,0.4038,0,0,0,0,0,0,0.391,0.3914,0.3923,0.3929,0.3933,0.3958,0.3944,0.3944,0.395,0.3949,0.3956,0.3956,0.3955,0.3974,0.3977,0.3987,0.3968,0.402,0.4022,0.4023,0.4036,0.4039,0.4042,0,0,0,0,0,0.3909,0.3927,0.3924,0.3927,0.3945,0.3959,0.3961,0.3959,0.3951,0.396,0.3962,0.3956,0.3985,0.3976,0.3979,0.399,0.4019,0.4021,0.4023,0.4035,0.4039,0.4042,0,0,0,0,0,0,0.3923,0.3928,0.3924,0.3946,0.3952,0.3957,0.3968,0.3964,0.3972,0.3971,0.3968,0.397,0.3988,0.3991,0.3981,0.4011,0.4001,0.4003,0.4009,0.4012,0.4015,0.4013,0.3969,0,0,0,0,0,0.3929,0.394,0.3944,0.3962,0.3965,0.3966,0.3973,0.397,0.3977,0.398,0.3983,0.3989,0.3999,0.4006,0.4016,0.4037,0.4037,0.4046,0.4049,0.4051,0.4053,0.4063,0.4066,0.4029,0.4029,0.4029,0,0,0.394,0.3945,0.3952,0.3965,0.397,0.3981,0.3969,0.3982,0.3989,0.3982,0.3998,0.4,0.4007,0.4026,0.4034,0.4029,0.4063,0.4053,0.4055,0.4056,0.4065,0.4068,0.4071,0.403,0.403,0.403,0,0,0.3967,0.3972,0.3987,0.3992,0.3998,0.3998,0.4002,0.4008,0.4009,0.4025,0.4018,0.4028,0.4046,0.405,0.4055,0.4082,0.4076,0.4085,0.4099,0.4108,0.4111,0.4114,0.4122,0.4125,0.4087,0.4087,0.4087,0,0.3981,0.3998,0.3995,0.4008,0.4013,0.4006,0.402,0.4025,0.4035,0.4038,0.4032,0.4053,0.4058,0.4076,0.4083,0.4087,0.409,0.4084,0.4111,0.4113,0.4116,0.4123,0.4127,0.4088,0.4088,0.4088,0.4088,0,0.4013,0.4025,0.4036,0.4045,0.4051,0.4065,0.4064,0.4071,0.4068,0.4069,0.4084,0.4089,0.4099,0.4103,0.4101,0.4121,0.4117,0.4111,0.41,0.412,0.4127,0.413,0.4089,0.4089,0.4089,0.4089,0,0,0.405,0.4056,0.406,0.4063,0.4069,0.4078,0.4091,0.41,0.4105,0.4112,0.4122,0.4136,0.413,0.4135,0.4133,0.4142,0.416,0.4134,0.4134,0.4138,0.4181,0.4185,0.4188,0.4157,0.4158,0.4158,0.418,0,0.4076,0.4098,0.4095,0.4116,0.4126,0.4118,0.4129,0.4134,0.4134,0.4142,0.4143,0.4153,0.4145,0.4147,0.4156,0.4156,0.4169,0.4155,0.4165,0.4166,0.4163,0.4192,0.4197,0.4217,0.4183,0.4183,0.4184,0,0.411,0.4116,0.4137,0.414,0.4144,0.4154,0.4161,0.4169,0.4174,0.4174,0.4179,0.4175,0.4187,0.4176,0.4191,0.4182,0.4186,0.4187,0.4188,0.4188,0.4175,0.4192,0.4224,0.4227,0.4188,0.4188,0.4188,0,0.4132,0.4147,0.4161,0.4164,0.4168,0.4175,0.4177,0.4181,0.4186,0.4192,0.4195,0.4203,0.4207,0.4212,0.421,0.4203,0.4226,0.4215,0.4225,0.4225,0.4229,0.4229,0.4261,0.4234,0.4234,0.4234,0.4234,0,0.4161,0.4174,0.4171,0.4179,0.4193,0.419,0.4203,0.4205,0.4208,0.4216,0.4211,0.4218,0.4216,0.4223,0.4222,0.4234,0.4236,0.4236,0.4235,0.4235,0.4235,0.4237,0.4235,0.4235,0.4235,0.4234,0.4234,0,0.4188,0.4187,0.4201,0.4204,0.4204,0.4214,0.4216,0.4224,0.4224,0.4234,0.4236,0.4236,0.4244,0.4243,0.4252,0.4251,0.4266,0.4264,0.4264,0.4263,0.4273,0.4271,0.4306,0.431,0.4282,0.4282,0.4282,0,0.4206,0.4215,0.4218,0.4223,0.4225,0.4233,0.4238,0.4235,0.424,0.4245,0.4252,0.4259,0.4265,0.4278,0.4279,0.4286,0.4283,0.4295,0.4284,0.4284,0.4282,0.4281,0.4281,0.4297,0.4297,0.4297,0.4298,0,0.4237,0.4235,0.4242,0.4248,0.4253,0.4258,0.4263,0.4267,0.4264,0.427,0.4278,0.4282,0.4291,0.4298,0.4304,0.4306,0.4301,0.4301,0.4303,0.4304,0.4303,0.4302,0.4268,0.43,0.43,0.43,0.43,0.4299,0.4259,0.4266,0.4269,0.4276,0.4279,0.4282,0.4289,0.4289,0.4296,0.4302,0.43,0.4309,0.4312,0.4319,0.4322,0.4328,0.4324,0.4328,0.4328,0.4329,0.4329,0.4302,0.4329,0.4329,0.4329,0.4329,0.4329,0,0.4288,0.4289,0.4296,0.4301,0.4307,0.4301,0.4305,0.431,0.4318,0.4321,0.4326,0.4335,0.4341,0.4342,0.4348,0.4353,0.435,0.4354,0.4353,0.4353,0.4334,0.433,0.4356,0.4356,0.4356,0.4356,0.4356,0.4356,0.4304,0.4316,0.4314,0.4327,0.4328,0.4336,0.4338,0.4341,0.4343,0.4353,0.4358,0.4358,0.436,0.4366,0.4371,0.4371,0.4373,0.4377,0.4376,0.4358,0.4355,0.4353,0.4349,0.4378,0.4378,0.4395,0.4395,0.4395]}]]